EW5773 Weather Reports


Display with metric or nautical units.
time (UTC)temp
F
wind
direction
speed
MPH
gust
MPH
rain 1hr
in
rain 24hr
in
rain mn
in
humidity
%
barometer
mb
20260904013014 65 213 2.0 3.0 0.00 0.00 0.00 87 1018.7
20260904011515 65 213 1.0 3.0 0.00 0.00 0.00 87 1019.0
20260904010111 66 213 0.0 3.0 0.00 0.00 0.00 86 1019.1
20260904004510 66 213 2.0 4.0 0.00 0.00 0.00 86 1019.3
20260904003008 67 213 2.0 5.0 0.00 0.00 0.00 85 1019.6
20260904001507 67 216 2.0 5.0 0.00 0.00 0.00 84 1019.8
20260904000006 67 221 2.0 7.0 0.00 0.00 0.00 83 1019.8
20260903234503 68 227 2.0 5.0 0.00 0.00 0.00 83 1019.7
20260903233007 68 228 2.0 6.0 0.00 0.00 0.00 82 1019.7
20260903231504 69 229 2.0 4.0 0.00 0.00 0.00 81 1019.7
20260903230013 69 230 1.0 5.0 0.00 0.00 0.00 80 1019.6
20260903224519 70 228 1.0 4.0 0.00 0.00 0.00 79 1019.9
20260903223105 70 226 0.0 4.0 0.00 0.00 0.00 79 1019.9
20260903221552 70 222 3.0 7.0 0.00 0.00 0.00 78 1020.0
20260903220104 71 223 2.0 5.0 0.00 0.00 0.00 78 1020.1
20260903214553 71 215 2.0 6.0 0.00 0.00 0.00 78 1020.2
20260903213046 70 206 1.0 5.0 0.00 0.00 0.00 78 1020.2
20260903211547 71 204 1.0 4.0 0.00 0.00 0.00 78 1020.3
20260903210045 71 204 2.0 5.0 0.00 0.00 0.00 77 1020.4
20260903204546 72 204 1.0 4.0 0.00 0.00 0.00 76 1020.4
20260903203023 72 203 1.0 5.0 0.00 0.00 0.00 75 1020.5
20260903201517 73 205 2.0 6.0 0.00 0.00 0.00 74 1020.6
20260903200033 73 205 2.0 5.0 0.00 0.00 0.00 73 1020.5
20260903194532 74 209 1.0 6.0 0.00 0.00 0.00 72 1020.6
20260903193009 75 211 1.0 4.0 0.00 0.00 0.00 71 1020.8
20260903191510 75 210 1.0 4.0 0.00 0.00 0.00 70 1020.6
20260903190009 76 211 2.0 4.0 0.00 0.00 0.00 69 1020.6
20260903184506 77 211 3.0 6.0 0.00 0.00 0.00 67 1020.6
20260903183009 77 213 2.0 7.0 0.00 0.00 0.00 66 1020.5
20260903181503 78 214 2.0 7.0 0.00 0.00 0.00 64 1020.5
20260903180004 79 223 3.0 8.0 0.00 0.00 0.00 63 1020.6
20260903174502 79 219 5.0 10.0 0.00 0.00 0.00 63 1020.8
20260903173111 79 232 3.0 13.0 0.00 0.00 0.00 62 1020.8
20260903171606 80 250 7.0 12.0 0.00 0.00 0.00 62 1020.8
20260903164559 80 221 4.0 10.0 0.00 0.00 0.00 62 1020.9
20260903163057 80 251 4.0 14.0 0.00 0.00 0.00 62 1020.9
20260903161611 80 248 4.0 11.0 0.00 0.00 0.00 62 1020.9
20260903160049 80 188 6.0 14.0 0.00 0.00 0.00 62 1020.9
20260903154517 80 236 3.0 10.0 0.00 0.00 0.00 62 1020.8
20260903153019 81 213 5.0 11.0 0.00 0.00 0.00 61 1020.9
20260903151513 80 217 5.0 10.0 0.00 0.00 0.00 62 1021.2
20260903150014 80 203 12.0 16.0 0.00 0.00 0.00 62 1021.3
20260903144510 80 227 6.0 12.0 0.00 0.00 0.00 63 1021.2
20260903143008 80 238 8.0 14.0 0.00 0.00 0.00 62 1021.4
20260903141506 80 243 7.0 16.0 0.00 0.00 0.00 62 1021.5
20260903140004 80 215 6.0 15.0 0.00 0.00 0.00 63 1021.4
20260903134505 79 221 6.0 15.0 0.00 0.00 0.00 64 1021.6
20260903133104 79 228 4.0 13.0 0.00 0.00 0.00 65 1021.6
20260903131550 78 227 6.0 12.0 0.00 0.00 0.00 65 1021.6
20260903130016 78 225 5.0 17.0 0.00 0.00 0.00 66 1021.8
20260903124529 77 244 8.0 13.0 0.00 0.00 0.00 66 1022.0
20260903123011 76 207 6.0 14.0 0.00 0.00 0.00 68 1022.0
20260903121510 75 223 9.0 18.0 0.00 0.00 0.00 68 1022.1
20260903120004 76 230 8.0 16.0 0.00 0.00 0.00 67 1022.0
20260903114509 76 360 6.0 17.0 0.00 0.00 0.00 67 1022.0
20260903113010 77 227 5.0 18.0 0.00 0.00 0.00 65 1022.1
20260903111517 76 246 6.0 14.0 0.00 0.00 0.00 67 1022.1
20260903110018 75 240 5.0 16.0 0.00 0.00 0.00 67 1022.2
20260903104510 74 192 8.0 14.0 0.00 0.00 0.00 69 1022.2
20260903103010 74 277 6.0 14.0 0.00 0.00 0.00 68 1022.3
20260903101503 73 230 5.0 14.0 0.00 0.00 0.00 69 1022.1
20260903100003 72 213 7.0 16.0 0.00 0.00 0.00 70 1022.0
20260903094513 71 237 9.0 13.0 0.00 0.00 0.00 71 1022.0
20260903093006 71 195 6.0 12.0 0.00 0.00 0.00 72 1022.1
20260903091511 70 217 6.0 15.0 0.00 0.00 0.00 74 1022.2
20260903090005 69 236 7.0 14.0 0.00 0.00 0.00 75 1022.2
20260903084604 69 240 9.0 16.0 0.00 0.00 0.00 76 1022.1
20260903083021 68 229 9.0 16.0 0.00 0.00 0.00 78 1022.3
20260903081520 67 216 8.0 17.0 0.00 0.00 0.00 78 1022.2
20260903080019 67 236 7.0 16.0 0.00 0.00 0.00 79 1022.5
20260903074519 66 210 5.0 17.0 0.00 0.00 0.00 81 1022.3
20260903073013 64 231 4.0 9.0 0.00 0.00 0.00 84 1022.2
20260903071511 63 193 2.0 7.0 0.00 0.00 0.00 85 1022.1
20260903070008 62 212 3.0 6.0 0.00 0.00 0.00 85 1022.1
20260903064508 61 199 3.0 6.0 0.00 0.00 0.00 85 1022.0
20260903063006 60 212 2.0 5.0 0.00 0.00 0.00 85 1022.0
20260903061506 60 221 2.0 6.0 0.00 0.00 0.00 85 1022.0
20260903060005 59 228 1.0 5.0 0.00 0.00 0.00 85 1021.9
20260903054504 59 229 3.0 8.0 0.00 0.00 0.00 84 1021.8
20260903053105 59 229 4.0 8.0 0.00 0.00 0.00 84 1021.6
20260903051505 59 219 2.0 7.0 0.00 0.00 0.00 84 1021.3
20260903044606 59 238 5.0 9.0 0.00 0.00 0.00 84 1021.4
20260903043110 59 215 2.0 7.0 0.00 0.00 0.00 84 1021.1
20260903041559 59 208 2.0 5.0 0.00 0.00 0.00 84 1021.1
20260903040055 59 202 2.0 6.0 0.00 0.00 0.00 83 1020.9
20260903034556 59 203 3.0 6.0 0.00 0.00 0.00 82 1021.0
20260903033048 60 215 2.0 5.0 0.00 0.00 0.00 81 1021.4
20260903031549 60 217 1.0 6.0 0.00 0.00 0.00 80 1021.6
20260903030018 60 216 2.0 5.0 0.00 0.00 0.00 80 1021.3
20260903024517 60 219 2.0 5.0 0.00 0.00 0.00 80 1021.3
20260903023021 60 218 2.0 5.0 0.00 0.00 0.00 80 1021.1
20260903021515 60 217 3.0 5.0 0.00 0.00 0.00 79 1020.8
20260903020031 60 218 2.0 4.0 0.00 0.00 0.00 79 1021.2
20260903014511 61 216 1.0 5.0 0.00 0.00 0.00 78 1021.1